Regional Weather Roundup
Issued by NWS

Home | Current Version | Previous Version | Text Only | Print | Product List | Glossary On
Versions: 1 2 3 4 5 6 7 8 9 10 11 12 13 14 15 16 17 18 19 20 21 22 23 24 25 26 27 28 29 30 31 32 33 34 35 36 37 38 39 40 41 42 43 44 45 46 47 48 49 50
000
ASUS45 KTFX 162019
RWRMT
MONTANA HOURLY WEATHER ROUNDUP
NATIONAL WEATHER SERVICE GREAT FALLS MT
219 PM MDT TUE SEP 16 2014

NOTE: "FAIR" INDICATES FEW OR NO CLOUDS BELOW 12000 FEET WITH NO
SIGNIFICANT WEATHER AND/OR OBSTRUCTIONS TO VISIBILITY.

* THESE STATIONS ARE NOT UNDER NWS QUALITY CONTROL. THEY DO NOT
   REPORT WEATHER SUCH AS PRECIPITATION OR FOG.

MTZ001>007-043-162100-
WEST OF THE DIVIDE
CITY           SKY/WX    TMP DP  RH WIND       PRES   REMARKS
KALISPELL      SUNNY     72  39  30 E5        29.95F
MISSOULA       CLOUDY    72  36  27 VRB3      29.99F
BUTTE          CLOUDY    70  37  30 CALM      30.14F
MULLAN PASS    CLOUDY    66  37  34 S8        30.12R
* ESSEX        N/A       70  41  35 NW5        N/A
* LINCOLN      N/A       68  33  27 S4         N/A
* LOOKOUT PASS N/A       72  42  34 SE4G9      N/A
* POLSON       N/A       71  44  38 S2         N/A
* RONAN APT    PTSUNNY   70  41  35 W6         N/A
* SEELEY LAKE  N/A       72  34  25 SE2        N/A
* THOMP F APT  PTSUNNY   75  35  23 W5G11      N/A
$$

MTZ008-052>055-162100-
SOUTHWEST MONTANA
CITY           SKY/WX    TMP DP  RH WIND       PRES   REMARKS
BOZEMAN        PTCLDY    77  37  24 CALM      30.07F
DILLON         CLOUDY    72  41  33 N7        30.12F
W YELLOWSTONE  PTSUNNY   68  36  31 S8        30.22F
* THREE FORKS  PTSUNNY   73  61  66 N/A        N/A
* BOULDER HILL N/A       72  35  26 SW11       N/A
* MONIDA PASS  N/A       70  35  28 W8         N/A
* RAYNOLDS PAS N/A       70  49  47 SE8G16     N/A
* WHITEHALL    N/A       72  39  30 NW4G11     N/A
* WISE RIVER   N/A       65  41  42 E4G11      N/A
$$

MTZ009>010-012-014-046-048-049-054-162100-
EAST SLOPES AND CENTRAL MONTANA
CITY           SKY/WX    TMP DP  RH WIND       PRES   REMARKS
CUT BANK       PTCLDY    81  36  20 S7        29.95F
GREAT FALLS    PTSUNNY   79  39  24 SW10      29.96F
HELENA         CLOUDY    66  39  37 W5        30.05F
MALMSTROM AFB  PTSUNNY   79  41  26 SW5       29.97F
* CONRAD       PTCLDY    79  39  24 E8         N/A
* EAST GLACIER N/A       75  33  22 NW6G16     N/A
* MONARCH      N/A       75  31  20 W11G18     N/A
* PENDROY      N/A       79  38  23 SE6        N/A
* ROGERS PASS  N/A       72  32  23 SE8G16     N/A
* SAINT MARY   N/A       78  30  17 SW7G16     N/A
* SWEET GRASS  N/A       74  38  27 S4G11      N/A
* WHITE SULPH  N/A       75  39  27 NW5        N/A
$$

MTZ011-013-016-021-035-040-045-047-050-051-162100-
NORTH CENTRAL MONTANA
CITY           SKY/WX    TMP DP  RH WIND       PRES   REMARKS
HAVRE          PTCLDY    73  46  38 VRB3      29.93F
LEWISTOWN      PTSUNNY   79  32  18 VRB5      30.01S
* CHINOOK      PTCLDY    73  48  41 CALM      29.93F
* FORT BENTON  PTCLDY    75  45  34 E5        29.94F
* CHESTER      N/A       78  39  25 S2         N/A
* DENTON       N/A       81  36  20 NE2        N/A
* JUDITH GAP   N/A       80  36  20 S1G6       N/A
* LOMA         N/A       74  42  32 S3         N/A
$$

MTZ017>020-022>027-061-062-162100-
NORTHEAST MONTANA
CITY           SKY/WX    TMP DP  RH WIND       PRES   REMARKS
GLASGOW        PTCLDY    73  43  34 S6        29.94F
GLENDIVE       PTCLDY    73  45  37 S5        29.97F
JORDAN         PTCLDY    75  46  36 VRB3      29.94F
SIDNEY         SUNNY     73  39  29 CALM      29.96F
WOLF POINT     PTCLDY    75  37  25 VRB7      29.94F
* BEAVER HILL  N/A       74  46  37 W5         N/A
* CIRCLE       N/A       76  46  35 N/A        N/A
* LINDSAY DVD  N/A       74  43  33 NE3        N/A
* NAVAJO       N/A       72  37  28 S4G11      N/A
* SACO         N/A       73  44  35 SE6        N/A
$$

MTZ028>042-056>058-162100-
SOUTHCENTRAL AND SOUTHEAST MONTANA
CITY           SKY/WX    TMP DP  RH WIND       PRES   REMARKS
BAKER          PTCLDY    77  46  33 CALM      29.97F
BILLINGS       PTSUNNY   81  36  20 SW12      29.98F
LIVINGSTON     PTSUNNY   81  37  21 N8        30.05F
MILES CITY     PTCLDY    75  46  36 VRB5      29.95F
* LAUREL APT   PTCLDY    84  39  20 VRB6       N/A
* ROUNDUP APT  PTSUNNY   79  39  24 N/A        N/A
* ALZADA       N/A       83  36  19 SW6G11     N/A
* HYSHAM       N/A       76  40  27 W5G10      N/A
* LAME DEER    N/A       77  39  26 SW6        N/A
* REED POINT   N/A       77  44  31 E3         N/A
* ROSCOE HILL  N/A       78  19  11 E6         N/A
$$

REGIONAL REPORTS...DAKOTAS
CITY           SKY/WX    TMP DP  RH WIND       PRES   REMARKS
WILLISTON      SUNNY     72  34  25 E5        29.96F
DICKINSON      SUNNY     73  46  38 NE6       29.95F
BEACH          N/A       73  43  34 NW6       29.98S
CROSBY         SUNNY     73  36  26 SW5       29.95F
TIOGA          SUNNY     72  36  27 NE7       29.99F
WATFORD CITY   SUNNY     73  32  22 NE3       29.94F
BISMARCK       SUNNY     73  46  38 E5        29.95F
GRAND FORKS    SUNNY     73  41  32 SW6       29.95F
FARGO          SUNNY     72  39  30 VRB3      29.99F
BUFFALO SD     PTCLDY    77  45  32 W5        29.91F
RAPID CITY     PTCLDY    79  45  30 N/A       29.99F
$$

REGIONAL REPORTS...WYOMING/IDAHO/WASHINGTON
CITY           SKY/WX    TMP DP  RH WIND       PRES   REMARKS
GILLETTE       PTCLDY    82  36  19 VRB6      30.02F
SHERIDAN       PTCLDY    82  30  15 VRB3      30.01F
CODY           PTSUNNY   75  46  36 NE9       30.07S
YELLOWSTONE LA PTSUNNY   64  34  33 W9        30.32S
SALMON         PTSUNNY   66  37  34 NW5       30.07F
MULLAN PASS    CLOUDY    66  37  34 S8        30.12S
SAND POINT     PTCLDY    68  45  44 S3        29.92S
SPOKANE        PTSUNNY   75  41  30 NE6       29.89F
$$

REGIONAL REPORTS...ALBERTA
CITY           SKY/WX    TMP DP  RH WIND       PRES   REMARKS
CALGARY        SUNNY     73  39  29 VRB5      29.91F
LETHBRIDGE     PTSUNNY   77  34  21 SE5       29.90F
MEDICINE HAT   SUNNY     77  45  32 VRB2      29.90F
EDMONTON       SUNNY     77  46  33 S7        29.85F
WATERTON GATE  N/A       81  34  18 SW9        N/A
CARDSTON       N/A       79  37  22 W2         N/A
$$

REGIONAL REPORTS...SASKATCHEWAN
CITY           SKY/WX    TMP DP  RH WIND       PRES   REMARKS
SWIFT CURRENT  SUNNY     75  41  30 SW12      29.90F
MOOSE JAW      SUNNY     73  43  34 SW5       29.92F
REGINA         PTCLDY    73  45  37 VRB7      29.91F
VAL MARIE      N/A       73  43  34 S10        N/A
ASSINIBOIA     N/A       75  37  25 SW6        N/A
CORONACH       N/A       73  37  27 S7         N/A

$$




USA.gov is the U.S. government's official web portal to all federal, state and local government web resources and services.